Погода в Курбе

Россия / Ярославская область     57°33′49″N   39°29′17″E
темп.,
°C
ветер,
м/с
пор.,
м/с
влажн.,
%
обл.,
%
осадки,
мм/ч
давл.,
гПа
погр.,
м
8 августа, пн
пн800:00+15сз2498100 0.0 1020125
03:00+15с4698100 0.1 1021339
06:00+14св349675 0.5 1022255
09:00+14ссв459247 0.8 1022267
12:00+17ссв448188 0.1 1023548
15:00+18с337390 0.1 1023624
18:00+15с348699 0.0 1023236
21:00+14с3591100 0.0 1022126
9 августа, вт
вт900:00+12с359480 0.0 102380
03:00+12ссв3594100 0.0 102287
06:00+13св2489100 0.1 1023137
09:00+17ссв4670100 0.1 1022476
12:00+20св4557100 0.1 10211092
15:00+19св2463100 0.2 1021684
18:00+19всв1369100 0.1 1021368
21:00+15с347820 0.1 102250
10 августа, ср
ср1000:00+12с36872 0.0 102297
03:00+11с339252 0.0 102242
06:00+12ссз36895 0.0 1022134
09:00+19с45594 0.0 1022636
12:00+22ссз44455 0.0 10221885
15:00+22ссз554218 0.0 10211979
18:00+20сз56458 0.0 10221052
21:00+13ссз48700 0.0 1023144
11 августа, чт
чт1100:00+11ссз34765 0.0 102451
03:00+10сз33820 0.0 102429
06:00+11сз25850 0.0 1025105
09:00+19ссз34515 0.0 1025627
12:00+22сз33370 0.0 10251860
15:00+23зсз33340 0.0 10241949
18:00+22зсз344016 0.0 10231082
21:00+16зюз3360100 0.0 102335
12 августа, пт
пт1200:00+14зюз476584 0.0 1024102
03:00+14зюз3968100 0.0 1023164
06:00+14зюз3971100 0.0 1024175
09:00+20з475226 0.0 1024450
12:00+24з563919 0.0 10231383
15:00+26з563889 0.0 10221625
18:00+25з454574 0.0 10221238
21:00+18зюз366916 0.0 102269